USA 40 R/B DEB, 44524

Orbit data source: Space-Track

USA 40 R/B DEB, 44524 is space debris originally from a launch on Tue, 08 Aug 1989 UTC launched from the Air Force Eastern Test Range (AFETR). Debris objects in space refer to the collection of defunct objects orbiting the Earth. Examples of debris include non-operational satellites, rocket bodies, and fragments generated from explosions, collisions, or faulty payload assembly.

Loading next visibility...
Identifier
44524, 1989-061BX
Orbit
Active
Country
Flag of USUS
Related business
Manufacturer
Unknown
Mission
Spacecraft
Bus & Motor
Unknown
Mass
Unknown
Launch date (UTC)
1989-08-08 (37 years ago)
Launch vehicle
Unknown
Launch site
Air Force Eastern Test Range (AFETR)
Object type
Payload
Rocket body
Debris
Shape & HBR
Unknown shape, 0.1 m
Radar Cross Section
Medium (>0.1 m² and <1 m²)

Expand to show TLE details & history
Last TLE update: 3 weeks ago

TLE from 3 weeks ago
0 USA 40 R/B DEB
1 44524U 89061BX  26150.56178977  .00033954  00000-0  12797-1 0  9998
2 44524  57.0493 231.0851 2813893 231.2993 100.1166  9.37988788204550
Epoch: 2026-05-30T13:28Z
TLE epoch observation values (Epoch: 2026-05-30T13:28:58.636Z)
Latitude
-0.00004°
Longitude
140.76471°
Altitude
4,239.072 km
Speed
5.756 km/s
True Right ascension
15h 24m 20s
True Declination
0° 00' 00"
Sunlit
Object was in full shadow at epoch
Visualization orbit readout
Latitude
Unknown
Longitude
Unknown
Altitude
Unknown
Speed
Unknown
Apparent Right ascension
Unknown
Apparent Declination
Unknown
Sunlit
N/A
Visualization observer readout
Local Sidereal Time
13:26:11
Azimuth
Unknown
Elevation
Unknown
Doppler factor
Unknown
Orbital elements
Apogee altitude
5,791.322 km
Perigee altitude
446.568 km
Semi-major axis
9,497.082 km
Eccentricity
0.28139
Inclination
57.0493°
RAAN
231.0851°
Arg. of periapsis
231.2993°
True anomaly
128.78169°
Mean anomaly
100.1166°
Eccentric anomaly
114.75721°
Mean motion
2.34508 °/min
Orbital period
153.51 mins
BSTAR
0.012797
Loading maneuver chart data...
Computing Atmospheric mass density...
Loading historical data...
Loading historical data...
Loading historical data...
Loading historical data...
Loading historical data...
Loading historical data...
Loading historical data...

Documentation

Showing up to 5 results
|